{"data":{"norad_id":49179,"epoch":"2026-09-18T23:36:23.962752Z","epoch_age_seconds":172387,"freshness":"FRESH","line1":"1 49179U 21082BB  26261.98361068  .00000322  00000+0  34812-4 0  9999","line2":"2 49179  69.9987 127.0845 0002401 258.1473 101.9417 14.98330352275919","mean_motion":14.98330352,"eccentricity":0.0002401,"inclination_deg":69.9987,"raan_deg":127.0845,"arg_perigee_deg":258.1473,"mean_anomaly_deg":101.9417,"bstar":3.4812e-5,"rev_number":27591,"period_min":96.106976547452,"perigee_km":570.38606136191,"apogee_km":573.72354346543,"semimajor_km":6950.1918024137,"source":"CELESTRAK","updated_at":"2026-09-20T09:00:39.254848Z"}}